STARLINK-3746, 52268

Orbit data source: Space-Track

STARLINK-3746, 52268 is a payload satellite owned by SpaceX/Seattle (US) in LEO that was launched on Thu, 21 Apr 2022 UTC via an FALCON 9 launch vehicle from the Air Force Eastern Test Range (AFETR). Payload-class satellites include a variety of spacecraft equipped with specific instruments for various scientific and technological missions. These include communications satellites like Starlink; space stations such as the ISS; scientific satellites like the Hubble; Earth observation satellites from companies like Planet Labs, Umbra, and HawkEye 360; GPS; miniature CubeSats for education and research; and military/defense satellites.

Loading next visibility...
Identifier
52268, 2022-041H
Orbit
LEO
Country
Flag of USUS
Related business
Manufacturer
SpaceX/Seattle
Mission
Operational Commercial Communications
Bus & Motor
STARLINK, Unknown motor
Mass
297 kg wet, ~275 kg dry
Launch date (UTC)
2022-04-21 (4 years ago)
Launch vehicle
FALCON 9
Launch site
Air Force Eastern Test Range (AFETR)
Object type
Payload
Rocket body
Debris
Shape & HBR
Box + 1 Pan, 10.1 m
Radar Cross Section
11.087 m², Large (>1 m²)

Expand to show TLE details & history
Last TLE update: 20 hours ago

TLE from 20 hours ago
0 STARLINK-3746
1 52268U 22041H   26175.19006769  .00212008  00000-0  12274-1 0  9991
2 52268  53.1609 350.7787 0001365 114.6071 245.5064 15.10780333230441
Epoch: 2026-06-24T04:33Z
TLE epoch observation values (Epoch: 2026-06-24T04:33:41.848Z)
Latitude
0.00001°
Longitude
10.0035°
Altitude
535.102 km
Speed
7.596 km/s
True Right ascension
23h 23m 06s
True Declination
0° 00' 00"
Sunlit
Object was in daylight at epoch
Visualization orbit readout
Latitude
Unknown
Longitude
Unknown
Altitude
Unknown
Speed
Unknown
Apparent Right ascension
Unknown
Apparent Declination
Unknown
Sunlit
N/A
Visualization observer readout
Local Sidereal Time
12:01:47
Azimuth
Unknown
Elevation
Unknown
Doppler factor
Unknown
Orbital elements
Apogee altitude
535.017 km
Perigee altitude
533.13 km
Semi-major axis
6,912.21 km
Eccentricity
0.00014
Inclination
53.1609°
RAAN
350.7787°
Arg. of periapsis
114.6071°
True anomaly
245.49217°
Mean anomaly
245.5064°
Eccentric anomaly
245.49928°
Mean motion
3.77675 °/min
Orbital period
95.32 mins
BSTAR
0.012274
Loading maneuver chart data...
Computing Atmospheric mass density...

Documentation

Showing up to 5 results
|